NOAA 17 DEB, 49487

Orbit data source: Space-Track

NOAA 17 DEB, 49487 is space debris in SSO originally from a launch on Mon, 24 Jun 2002 UTC launched from the Air Force Western Test Range (AFWTR). Debris objects in space refer to the collection of defunct objects orbiting the Earth. Examples of debris include non-operational satellites, rocket bodies, and fragments generated from explosions, collisions, or faulty payload assembly.

Loading next visibility...
Identifier
49487, 2002-032DR
Orbit
SSO
Country
Flag of USUS
Related business
Manufacturer
Unknown
Mission
Spacecraft
Bus & Motor
Unknown
Mass
Unknown
Launch date (UTC)
2002-06-24 (24 years ago)
Launch vehicle
Unknown
Launch site
Air Force Western Test Range (AFWTR)
Object type
Payload
Rocket body
Debris
Shape & HBR
Unknown shape, 0.1 m
Radar Cross Section
Medium (>0.1 m² and <1 m²)

Expand to show TLE details & history
Last TLE update: 2 days ago

TLE from 2 days ago
0 NOAA 17 DEB
1 49487U 02032DR  26171.06282085  .00009436  00000-0  15371-2 0  9998
2 49487  98.8100 210.8015 0022797 288.6031  71.2698 14.71071546277210
Epoch: 2026-06-20T01:30Z
TLE epoch observation values (Epoch: 2026-06-20T01:30:27.721Z)
Latitude
0.00003°
Longitude
-80.09684°
Altitude
655.511 km
Speed
7.532 km/s
True Right ascension
14h 03m 12s
True Declination
0° 00' 00"
Sunlit
Object was in full shadow at epoch
Visualization orbit readout
Latitude
Unknown
Longitude
Unknown
Altitude
Unknown
Speed
Unknown
Apparent Right ascension
Unknown
Apparent Declination
Unknown
Sunlit
N/A
Visualization observer readout
Local Sidereal Time
21:36:31
Azimuth
Unknown
Elevation
Unknown
Doppler factor
Unknown
Orbital elements
Apogee altitude
670.778 km
Perigee altitude
638.712 km
Semi-major axis
7,032.882 km
Eccentricity
0.00228
Inclination
98.81°
RAAN
210.8015°
Arg. of periapsis
288.6031°
True anomaly
71.51743°
Mean anomaly
71.2698°
Eccentric anomaly
71.39359°
Mean motion
3.67996 °/min
Orbital period
97.83 mins
BSTAR
0.0015371
Loading maneuver chart data...
Computing Atmospheric mass density...

Documentation

Showing up to 5 results
|